Regional Weather Roundup
Issued by NWS

Home | Current Version | Previous Version | Text Only | Print | Product List | Glossary Off
Versions: 1 2 3 4 5 6 7 8 9 10 11 12 13 14 15 16 17 18 19 20 21 22 23 24 25 26 27 28 29 30 31 32 33 34 35 36 37 38 39 40 41 42 43 44 45 46 47 48 49 50

000
ASUS43 KMKX 010959
RWRWI

WISCONSIN REGIONAL WEATHER ROUNDUP
NATIONAL WEATHER SERVICE MILWAUKEE/SULLIVAN WI
500 AM CDT WED APR 01 2015

NOTE: "FAIR" INDICATES FEW OR NO CLOUDS BELOW 12,000 FEET WITH NO
SIGNIFICANT WEATHER AND/OR OBSTRUCTIONS TO VISIBILITY.

WIZ001-002-006>008-014>016-023>028-011100-
NORTHWEST WISCONSIN

CITY           SKY/WX    TMP DP  RH WIND       PRES   REMARKS
SUPERIOR ARPT  CLOUDY    32  31  98 NE10G16   29.94S WCI  23
ASHLAND        FOG       30  29  96 CALM      29.96F VSB 1/2
HAYWARD        MOCLDY    39  29  67 CALM      29.90F
SIREN          CLEAR     41  31  66 SE6       29.86F
CUMBERLAND     PTCLDY    37  30  75 SE10      29.88F WCI  30
RICE LAKE      CLEAR     38  31  74 E8        29.91S WCI  33
CHETEK         CLEAR     39  32  76 E7        29.90F WCI  34
LADYSMITH      PTCLDY    35  31  85 E3        29.94S
EAU CLAIRE     NOT AVBL
MENOMONIE      CLEAR     38  31  76 NE5       29.89S WCI  35
NEW RICHMOND   CLEAR     41  29  61 SE7       29.85F
OSCEOLA        CLEAR     42  30  62 E9        29.87S
$$

WIZ003>005-009-010-017-018-011100-
NORTH CENTRAL WISCONSIN

CITY           SKY/WX    TMP DP  RH WIND       PRES   REMARKS
MANITOWISH WTR MOCLDY    29  29 100 CALM      29.94R
ARBOR VITAE    PTCLDY    32  29  92 CALM      29.94S
WOODRUFF       PTCLDY    32  29  92 CALM      29.94S
RHINELANDER    PTCLDY    28  24  85 CALM      29.96R
EAGLE RIVER    PTCLDY    26  24  95 CALM      29.94S
LAND O LAKES   MOCLDY    28  27  99 CALM      29.95S
PHILLIPS       CLOUDY    32  30  92 CALM      29.93R
TOMAHAWK       PTCLDY    26  24  94 CALM      29.96S
MEDFORD        MOCLDY    36  30  80 SE7       29.94S WCI  30
MERRILL        PTCLDY    26  26  99 CALM      29.97R
$$

WIZ029-030-035-036-043>047-011100-
CENTRAL WISCONSIN

CITY           SKY/WX    TMP DP  RH WIND       PRES   REMARKS
WAUSAU         PTCLDY    30  27  88 CALM      29.96R
MOSINEE        PTCLDY    34  32  93 CALM      29.98R
MARSHFIELD     MOCLDY    35  30  82 SE6       29.95R WCI  30
STEVENS POINT  PTCLDY    26  24  91 CALM      29.97R
WAUPACA        CLEAR     29  27  90 CALM      29.99R
WAUTOMA        NOT AVBL
WISC RAPIDS    PTCLDY    32  27  81 SE3       29.98R
CAMP DOUGLAS   NOT AVBL
$$

WIZ011>013-019>022-031-037>040-048>050-011100-
NORTHEAST WISCONSIN

CITY           SKY/WX    TMP DP  RH WIND       PRES   REMARKS
ANTIGO         PTCLDY    30  28  92 CALM      29.96S
SHAWANO        CLEAR     30  28  94 CALM      29.99S
OCONTO         CLEAR     23  23 100 CALM      30.00R
STURGEON BAY   CLEAR     28  25  86 CALM      30.02R
GREEN BAY      CLEAR     30  28  92 CALM      30.00R
MANITOWOC      NOT AVBL
APPLETON       CLEAR     32  28  86 CALM      29.99R
CLINTONVILLE   CLEAR     30  28  93 CALM      29.99R
OSHKOSH        CLEAR     30  28  92 CALM      29.98R
$$

WIZ032>034-041-042-053>061-011100-
SOUTHWEST WISCONSIN

CITY           SKY/WX    TMP DP  RH WIND       PRES   REMARKS
LA CROSSE      MOCLDY    40  30  67 SE7       29.91S
SPARTA         MOCLDY    38  31  75 E5        29.94F WCI  34
VIROQUA        CLOUDY    40  30  68 E10       29.92F WCI  33
BOSCOBEL       FAIR      33  29  85 CALM      29.95S
PRAIRIE DU CHI CLEAR     35  31  85 E3        29.92F
PLATTEVILLE    CLEAR     43  31  63 E7        29.93S
$$

WIZ056-057-062-063-064-067-068-011100-
SOUTH CENTRAL WISCONSIN

CITY           SKY/WX    TMP DP  RH WIND       PRES   REMARKS
REEDSBURG      MOCLDY    35  31  85 CALM      29.96S
BARABOO/DELLS  CLEAR     34  29  82 E3        29.96S
LONE ROCK      NOT AVBL
MINERAL POINT  CLEAR     41  30  65 E8        29.94S
MADISON        CLEAR     34  29  82 CALM      29.98R
MIDDLETON      CLEAR     32  30  92 CALM      29.98R
WATERTOWN      CLEAR     31  28  89 CALM      29.97R
MONROE         CLEAR     39  32  75 NE7       29.96R WCI  34
JANESVILLE     CLEAR     34  32  93 E7        29.97R WCI  28
$$

WIZ051-052-058>065-066-070>072-011100-
SOUTHEAST WISCONSIN

CITY           SKY/WX    TMP DP  RH WIND       PRES   REMARKS
MILWAUKEE      FAIR      37  30  75 CALM      30.00R
WAUKESHA       CLEAR     34  30  86 CALM      29.99R
MILWAUKEE/TIMM CLEAR     34  30  86 CALM      29.99R
RACINE         CLEAR     33  30  88 CALM      30.00S
BURLINGTON     CLEAR     28  27  96 CALM      29.99R
KENOSHA        CLEAR     32  29  88 CALM      29.99R
FOND DU LAC    CLEAR     30  27  88 CALM      29.98S
SHEBOYGAN      CLEAR     25  25 100 W5        30.00R WCI  19
WEST BEND      CLEAR     30  28  93 CALM      29.98S
JUNEAU         CLEAR     37  30  77 E3        29.98R
$$

LSZ147-162-011100-
LAKE SUPERIOR

STATION/POSITION TIME  TEMP    WIND        PRES    WAVE
                       AIR SEA DIR/SP/G            HT/PER
                 (UTC) (F)     (DEG/KT/KT) (MB)    (FT/S)
DEVILS ISLAND    0900   29      80/ 11/ 14 1015.6F
PORT WING        0900   31      20/  8/ 22 1014.6F
SAXON HARBOR     0900   29        CALM     1014.6
$$

LMZ867-665-643>646-011100-
LAKE MICHIGAN

STATION/POSITION TIME  TEMP    WIND        PRES    WAVE
                       AIR SEA DIR/SP/G            HT/PER
                 (UTC) (F)     (DEG/KT/KT) (MB)    (FT/S)
NORTHPORT PIER   0900   31      50/  3/  4 1015.9R
SISTER BAY       0932   30        CALM       N/A
KEWAUNEE LAKESHO 0900   29     300/  5/  6 1014.5S
SHEBOYGAN LAKESH 0900   39     350/  4/  4 1016.1R
PORT WASHINGTON  0900   37     320/  2/  3 1015.9
MILWAUKEE LAKESH 0900   42      10/  9/ 11   N/A
KENOSHA   LAKESH 0900   40      10/  8/  8 1015.2S
$$

TC  - TEMPERATURE IN CELSIUS
VSB - VISIBILITY IN STATUTE MILES
WCI - WIND CHILL INDEX
HX  - HEAT INDEX




USA.gov is the U.S. government's official web portal to all federal, state and local government web resources and services.